| time (UTC) | temp C | wind direction | speed KPH | gust KPH | rain 1hr cm | rain 24hr cm | rain mn cm | humidity % | barometer mb |
| 20260504174125 | 22 | 186 | 1.6 | 3.2 | 0.00 | 0.00 | 0.00 | 38 | 1010.9 |
| 20260504174004 | 23 | 196 | 1.6 | 3.2 | 0.00 | 0.00 | 0.00 | 38 | 1009.0 |
| 20260504173624 | 23 | 181 | 0.0 | 1.6 | 0.00 | 0.00 | 0.00 | 37 | 1011.1 |
| 20260504173124 | 23 | 225 | 0.0 | 3.2 | 0.00 | 0.00 | 0.00 | 37 | 1011.0 |
| 20260504173003 | 23 | 225 | 1.6 | 3.2 | 0.00 | 0.00 | 0.00 | 36 | 1009.1 |
| 20260504172003 | 24 | 225 | 4.8 | 6.4 | 0.00 | 0.00 | 0.00 | 36 | 1009.3 |
| 20260504171625 | 23 | 216 | 4.8 | 6.4 | 0.00 | 0.00 | 0.00 | 36 | 1010.8 |
| 20260504171504 | 24 | 215 | 4.8 | 6.4 | 0.00 | 0.00 | 0.00 | 35 | 1009.2 |
| 20260504171004 | 24 | 217 | 6.4 | 8.0 | 0.00 | 0.00 | 0.00 | 35 | 1009.1 |
| 20260504170625 | 24 | 224 | 6.4 | 8.0 | 0.00 | 0.00 | 0.00 | 34 | 1010.8 |
| 20260504170504 | 25 | 225 | 6.4 | 9.7 | 0.00 | 0.00 | 0.00 | 35 | 1009.3 |
| 20260504170130 | 24 | 222 | 6.4 | 8.0 | 0.00 | 0.00 | 0.00 | 34 | 1011.0 |
| 20260504160130 | 25 | 231 | 11.3 | 17.7 | 0.00 | 0.00 | 0.00 | 29 | 1010.8 |
| 20260504151125 | 25 | 256 | 11.3 | 17.7 | 0.00 | 0.00 | 0.00 | 30 | 1011.5 |
| 20260504151004 | 25 | 226 | 12.9 | 17.7 | 0.00 | 0.00 | 0.00 | 33 | 1009.6 |
| 20260504150625 | 25 | 273 | 16.1 | 20.9 | 0.00 | 0.00 | 0.00 | 30 | 1011.3 |
| 20260504150503 | 25 | 235 | 14.5 | 17.7 | 0.00 | 0.00 | 0.00 | 33 | 1009.6 |
| 20260504150130 | 25 | 256 | 16.1 | 20.9 | 0.00 | 0.00 | 0.00 | 31 | 1011.5 |
| 20260504141003 | 26 | 186 | 14.5 | 20.9 | 0.00 | 0.00 | 0.00 | 32 | 1009.9 |
| 20260504140624 | 26 | 204 | 11.3 | 20.9 | 0.00 | 0.00 | 0.00 | 31 | 1011.5 |
| 20260504140130 | 26 | 219 | 11.3 | 12.9 | 0.00 | 0.00 | 0.00 | 32 | 1011.8 |
| 20260504130624 | 25 | 234 | 14.5 | 20.9 | 0.00 | 0.00 | 0.00 | 30 | 1012.1 |
| 20260504130503 | 25 | 232 | 12.9 | 17.7 | 0.00 | 0.00 | 0.00 | 34 | 1010.6 |
| 20260504130132 | 25 | 255 | 12.9 | 17.7 | 0.00 | 0.00 | 0.00 | 32 | 1012.2 |
| 20260504120130 | 25 | 250 | 12.9 | 17.7 | 0.00 | 0.00 | 0.00 | 33 | 1012.5 |
| 20260504110625 | 24 | 232 | 14.5 | 17.7 | 0.00 | 0.00 | 0.00 | 34 | 1013.0 |
| 20260504110503 | 24 | 228 | 16.1 | 19.3 | 0.00 | 0.00 | 0.00 | 36 | 1011.5 |
| 20260504110130 | 24 | 217 | 16.1 | 22.5 | 0.00 | 0.00 | 0.00 | 35 | 1012.9 |
| 20260504100504 | 23 | 284 | 14.5 | 17.7 | 0.00 | 0.00 | 0.00 | 39 | 1012.1 |
| 20260504090131 | 22 | 203 | 12.9 | 20.9 | 0.00 | 0.00 | 0.00 | 37 | 1013.8 |
| 20260504082004 | 21 | 240 | 16.1 | 24.1 | 0.00 | 0.00 | 0.00 | 40 | 1012.3 |
| 20260504081503 | 21 | 264 | 16.1 | 22.5 | 0.00 | 0.00 | 0.00 | 40 | 1012.3 |
| 20260504081125 | 21 | 279 | 17.7 | 22.5 | 0.00 | 0.00 | 0.00 | 37 | 1013.8 |
| 20260504081004 | 21 | 293 | 17.7 | 22.5 | 0.00 | 0.00 | 0.00 | 40 | 1012.2 |
| 20260504080624 | 21 | 258 | 17.7 | 19.3 | 0.00 | 0.00 | 0.00 | 38 | 1013.9 |
| 20260504080503 | 21 | 305 | 17.7 | 19.3 | 0.00 | 0.00 | 0.00 | 40 | 1012.1 |
| 20260504080130 | 21 | 276 | 16.1 | 19.3 | 0.00 | 0.00 | 0.00 | 39 | 1013.8 |
| 20260504070131 | 18 | 220 | 14.5 | 17.7 | 0.00 | 0.00 | 0.00 | 43 | 1013.9 |
| 20260504050625 | 14 | 214 | 14.5 | 20.9 | 0.00 | 0.00 | 0.00 | 48 | 1013.6 |
| 20260504050503 | 14 | 223 | 14.5 | 17.7 | 0.00 | 0.00 | 0.00 | 50 | 1012.1 |
| 20260504050131 | 14 | 216 | 14.5 | 17.7 | 0.00 | 0.00 | 0.00 | 49 | 1013.7 |
| 20260504050004 | 14 | 219 | 12.9 | 17.7 | 0.00 | 0.00 | 0.00 | 51 | 1012.0 |
| 20260504045624 | 14 | 218 | 12.9 | 17.7 | 0.00 | 0.00 | 0.00 | 49 | 1013.6 |
| 20260504045124 | 13 | 222 | 12.9 | 17.7 | 0.00 | 0.00 | 0.00 | 49 | 1013.6 |
| 20260504045003 | 13 | 229 | 12.9 | 17.7 | 0.00 | 0.00 | 0.00 | 51 | 1012.0 |
| 20260504044624 | 13 | 223 | 14.5 | 17.7 | 0.00 | 0.00 | 0.00 | 50 | 1013.8 |
| 20260504044504 | 13 | 227 | 12.9 | 17.7 | 0.00 | 0.00 | 0.00 | 52 | 1011.9 |
| 20260504044004 | 13 | 220 | 11.3 | 17.7 | 0.00 | 0.00 | 0.00 | 52 | 1011.9 |
| 20260504043625 | 13 | 211 | 11.3 | 14.5 | 0.00 | 0.00 | 0.00 | 51 | 1013.7 |
| 20260504043503 | 13 | 221 | 11.3 | 16.1 | 0.00 | 0.00 | 0.00 | 52 | 1011.8 |
| 20260504043124 | 13 | 221 | 9.7 | 14.5 | 0.00 | 0.00 | 0.00 | 51 | 1013.6 |
| 20260504043004 | 13 | 222 | 12.9 | 16.1 | 0.00 | 0.00 | 0.00 | 52 | 1012.0 |
| 20260504042625 | 13 | 206 | 9.7 | 17.7 | 0.00 | 0.00 | 0.00 | 51 | 1013.6 |
| 20260504042124 | 13 | 219 | 11.3 | 17.7 | 0.00 | 0.00 | 0.00 | 51 | 1013.6 |
| 20260504042003 | 13 | 218 | 12.9 | 17.7 | 0.00 | 0.00 | 0.00 | 52 | 1011.7 |
| 20260504041624 | 13 | 231 | 11.3 | 17.7 | 0.00 | 0.00 | 0.00 | 51 | 1013.4 |
| 20260504041504 | 13 | 198 | 11.3 | 16.1 | 0.00 | 0.00 | 0.00 | 52 | 1011.7 |
| 20260504041125 | 13 | 228 | 11.3 | 17.7 | 0.00 | 0.00 | 0.00 | 51 | 1013.6 |
| 20260504041003 | 13 | 191 | 11.3 | 11.3 | 0.00 | 0.00 | 0.00 | 52 | 1011.7 |
| 20260504040624 | 12 | 235 | 9.7 | 11.3 | 0.00 | 0.00 | 0.00 | 51 | 1013.5 |
| 20260504040503 | 13 | 189 | 11.3 | 12.9 | 0.00 | 0.00 | 0.00 | 52 | 1011.7 |
| 20260504040130 | 12 | 209 | 11.3 | 17.7 | 0.00 | 0.00 | 0.00 | 51 | 1013.6 |
| 20260504040004 | 13 | 210 | 11.3 | 17.7 | 0.00 | 0.00 | 0.00 | 52 | 1011.6 |
| 20260504035625 | 12 | 193 | 9.7 | 17.7 | 0.00 | 0.00 | 0.00 | 51 | 1013.4 |
| 20260504035503 | 13 | 220 | 11.3 | 17.7 | 0.00 | 0.00 | 0.00 | 52 | 1011.8 |
| 20260504035124 | 12 | 200 | 9.7 | 12.9 | 0.00 | 0.00 | 0.00 | 50 | 1013.3 |
| 20260504034624 | 12 | 200 | 9.7 | 12.9 | 0.00 | 0.00 | 0.00 | 50 | 1013.6 |
| 20260504034503 | 13 | 204 | 11.3 | 14.5 | 0.00 | 0.00 | 0.00 | 51 | 1011.6 |
| 20260504034004 | 13 | 213 | 11.3 | 14.5 | 0.00 | 0.00 | 0.00 | 51 | 1011.4 |
| 20260504033625 | 12 | 206 | 11.3 | 14.5 | 0.00 | 0.00 | 0.00 | 50 | 1013.5 |
| 20260504033504 | 13 | 212 | 11.3 | 16.1 | 0.00 | 0.00 | 0.00 | 51 | 1011.6 |
| 20260504033124 | 12 | 205 | 11.3 | 16.1 | 0.00 | 0.00 | 0.00 | 50 | 1013.3 |
| 20260504032625 | 12 | 211 | 9.7 | 16.1 | 0.00 | 0.00 | 0.00 | 50 | 1013.4 |
| 20260504031624 | 13 | 205 | 9.7 | 12.9 | 0.00 | 0.00 | 0.00 | 49 | 1013.2 |
| 20260504031503 | 13 | 224 | 9.7 | 14.5 | 0.00 | 0.00 | 0.00 | 50 | 1011.6 |
| 20260504031124 | 13 | 206 | 9.7 | 12.9 | 0.00 | 0.00 | 0.00 | 49 | 1013.4 |
| 20260504031003 | 13 | 215 | 9.7 | 12.9 | 0.00 | 0.00 | 0.00 | 50 | 1011.5 |
| 20260504030504 | 13 | 220 | 11.3 | 12.9 | 0.00 | 0.00 | 0.00 | 50 | 1011.6 |
| 20260504030130 | 13 | 206 | 9.7 | 12.9 | 0.00 | 0.00 | 0.00 | 49 | 1013.5 |
| 20260504030003 | 13 | 214 | 9.7 | 12.9 | 0.00 | 0.00 | 0.00 | 50 | 1011.6 |
| 20260504025624 | 13 | 202 | 8.0 | 12.9 | 0.00 | 0.00 | 0.00 | 49 | 1013.4 |
| 20260504025503 | 13 | 201 | 9.7 | 12.9 | 0.00 | 0.00 | 0.00 | 50 | 1011.6 |
| 20260504025125 | 13 | 209 | 8.0 | 12.9 | 0.00 | 0.00 | 0.00 | 48 | 1013.2 |
| 20260504025004 | 13 | 205 | 9.7 | 12.9 | 0.00 | 0.00 | 0.00 | 49 | 1011.5 |
| 20260504024625 | 13 | 215 | 9.7 | 14.5 | 0.00 | 0.00 | 0.00 | 48 | 1013.5 |
| 20260504024503 | 13 | 218 | 9.7 | 14.5 | 0.00 | 0.00 | 0.00 | 49 | 1011.5 |
| 20260504024124 | 13 | 222 | 9.7 | 14.5 | 0.00 | 0.00 | 0.00 | 48 | 1013.6 |
| 20260504023624 | 13 | 210 | 9.7 | 12.9 | 0.00 | 0.00 | 0.00 | 48 | 1013.3 |
| 20260504023504 | 13 | 209 | 9.7 | 12.9 | 0.00 | 0.00 | 0.00 | 48 | 1011.7 |
| 20260504023125 | 13 | 209 | 9.7 | 17.7 | 0.00 | 0.00 | 0.00 | 48 | 1013.2 |
| 20260504023003 | 13 | 209 | 11.3 | 17.7 | 0.00 | 0.00 | 0.00 | 48 | 1011.6 |
| 20260504022624 | 13 | 212 | 11.3 | 17.7 | 0.00 | 0.00 | 0.00 | 46 | 1013.3 |
| 20260504022503 | 13 | 217 | 11.3 | 17.7 | 0.00 | 0.00 | 0.00 | 47 | 1011.7 |
| 20260504022124 | 13 | 211 | 11.3 | 17.7 | 0.00 | 0.00 | 0.00 | 46 | 1013.4 |
| 20260504022004 | 14 | 212 | 11.3 | 12.9 | 0.00 | 0.00 | 0.00 | 47 | 1011.4 |
| 20260504021625 | 13 | 211 | 11.3 | 16.1 | 0.00 | 0.00 | 0.00 | 46 | 1013.5 |
| 20260504021503 | 14 | 222 | 11.3 | 17.7 | 0.00 | 0.00 | 0.00 | 47 | 1011.5 |
| 20260504021125 | 13 | 213 | 9.7 | 16.1 | 0.00 | 0.00 | 0.00 | 46 | 1013.3 |
| 20260504021003 | 14 | 240 | 9.7 | 17.7 | 0.00 | 0.00 | 0.00 | 47 | 1011.5 |
| 20260504020504 | 14 | 222 | 8.0 | 14.5 | 0.00 | 0.00 | 0.00 | 47 | 1011.5 |
| 20260504020004 | 14 | 224 | 9.7 | 14.5 | 0.00 | 0.00 | 0.00 | 47 | 1011.5 |
| 20260504015624 | 14 | 208 | 8.0 | 9.7 | 0.00 | 0.00 | 0.00 | 46 | 1013.5 |
| 20260504015125 | 14 | 198 | 8.0 | 9.7 | 0.00 | 0.00 | 0.00 | 46 | 1013.5 |
| 20260504015004 | 14 | 231 | 9.7 | 11.3 | 0.00 | 0.00 | 0.00 | 47 | 1011.5 |
| 20260504014625 | 14 | 208 | 9.7 | 17.7 | 0.00 | 0.00 | 0.00 | 46 | 1013.4 |
| 20260504014503 | 14 | 220 | 11.3 | 19.3 | 0.00 | 0.00 | 0.00 | 47 | 1011.5 |
| 20260504014124 | 14 | 214 | 9.7 | 17.7 | 0.00 | 0.00 | 0.00 | 46 | 1013.4 |
| 20260504014003 | 14 | 218 | 11.3 | 19.3 | 0.00 | 0.00 | 0.00 | 48 | 1011.5 |
| 20260504013624 | 14 | 216 | 8.0 | 12.9 | 0.00 | 0.00 | 0.00 | 46 | 1013.3 |
| 20260504013504 | 14 | 227 | 8.0 | 12.9 | 0.00 | 0.00 | 0.00 | 48 | 1011.5 |
| 20260504013125 | 14 | 223 | 8.0 | 11.3 | 0.00 | 0.00 | 0.00 | 46 | 1013.4 |
| 20260504013003 | 14 | 236 | 8.0 | 12.9 | 0.00 | 0.00 | 0.00 | 48 | 1011.5 |
| 20260504012504 | 14 | 227 | 9.7 | 12.9 | 0.00 | 0.00 | 0.00 | 47 | 1011.5 |
| 20260504012124 | 14 | 219 | 8.0 | 11.3 | 0.00 | 0.00 | 0.00 | 46 | 1013.5 |
| 20260504012003 | 14 | 209 | 8.0 | 11.3 | 0.00 | 0.00 | 0.00 | 48 | 1011.6 |
| 20260504011624 | 14 | 222 | 8.0 | 11.3 | 0.00 | 0.00 | 0.00 | 46 | 1013.6 |
| 20260504011125 | 14 | 225 | 8.0 | 12.9 | 0.00 | 0.00 | 0.00 | 46 | 1013.6 |
| 20260504011004 | 14 | 231 | 9.7 | 12.9 | 0.00 | 0.00 | 0.00 | 48 | 1011.8 |
| 20260504010625 | 14 | 216 | 9.7 | 12.9 | 0.00 | 0.00 | 0.00 | 47 | 1013.4 |
| 20260504010504 | 14 | 223 | 9.7 | 12.9 | 0.00 | 0.00 | 0.00 | 48 | 1011.5 |
| 20260504010130 | 14 | 200 | 8.0 | 12.9 | 0.00 | 0.00 | 0.00 | 47 | 1013.6 |
| 20260504010003 | 14 | 217 | 9.7 | 12.9 | 0.00 | 0.00 | 0.00 | 48 | 1011.8 |
| 20260504005624 | 14 | 200 | 8.0 | 11.3 | 0.00 | 0.00 | 0.00 | 47 | 1013.6 |
| 20260504005504 | 14 | 220 | 6.4 | 9.7 | 0.00 | 0.00 | 0.00 | 49 | 1011.9 |
| 20260504005004 | 14 | 219 | 6.4 | 9.7 | 0.00 | 0.00 | 0.00 | 49 | 1011.7 |
| 20260504004503 | 14 | 216 | 4.8 | 6.4 | 0.00 | 0.00 | 0.00 | 49 | 1011.8 |
| 20260504004124 | 14 | 220 | 6.4 | 8.0 | 0.00 | 0.00 | 0.00 | 47 | 1013.5 |
| 20260504004004 | 14 | 222 | 6.4 | 9.7 | 0.00 | 0.00 | 0.00 | 49 | 1011.8 |
| 20260504003624 | 14 | 205 | 8.0 | 12.9 | 0.00 | 0.00 | 0.00 | 47 | 1013.7 |
| 20260504003503 | 15 | 206 | 8.0 | 12.9 | 0.00 | 0.00 | 0.00 | 49 | 1011.8 |
| 20260504003125 | 14 | 195 | 8.0 | 12.9 | 0.00 | 0.00 | 0.00 | 47 | 1013.6 |
| 20260504003004 | 15 | 201 | 8.0 | 12.9 | 0.00 | 0.00 | 0.00 | 49 | 1011.8 |
| 20260504002624 | 14 | 198 | 8.0 | 11.3 | 0.00 | 0.00 | 0.00 | 48 | 1013.7 |
| 20260504002504 | 14 | 213 | 8.0 | 12.9 | 0.00 | 0.00 | 0.00 | 49 | 1011.8 |
| 20260504002124 | 14 | 198 | 6.4 | 11.3 | 0.00 | 0.00 | 0.00 | 48 | 1013.5 |
| 20260504002003 | 14 | 215 | 8.0 | 12.9 | 0.00 | 0.00 | 0.00 | 50 | 1011.9 |
| 20260504001625 | 14 | 202 | 6.4 | 6.4 | 0.00 | 0.00 | 0.00 | 48 | 1013.5 |
| 20260504001504 | 15 | 215 | 8.0 | 8.0 | 0.00 | 0.00 | 0.00 | 50 | 1011.9 |
| 20260504001125 | 14 | 193 | 6.4 | 6.4 | 0.00 | 0.00 | 0.00 | 49 | 1014.0 |
| 20260504001003 | 15 | 222 | 8.0 | 8.0 | 0.00 | 0.00 | 0.00 | 50 | 1011.8 |
| 20260504000503 | 15 | 213 | 8.0 | 11.3 | 0.00 | 0.00 | 0.00 | 51 | 1012.0 |
| 20260504000130 | 14 | 208 | 8.0 | 11.3 | 0.00 | 0.00 | 0.00 | 49 | 1013.8 |
| 20260503235625 | 15 | 202 | 6.4 | 11.3 | 0.00 | 0.00 | 0.00 | 49 | 1013.7 |
| 20260503235125 | 15 | 194 | 6.4 | 8.0 | 0.00 | 0.00 | 0.00 | 50 | 1013.8 |
| 20260503235003 | 15 | 204 | 6.4 | 9.7 | 0.00 | 0.00 | 0.00 | 50 | 1012.0 |
| 20260503234625 | 15 | 199 | 8.0 | 9.7 | 0.00 | 0.00 | 0.00 | 50 | 1013.9 |
| 20260503234504 | 15 | 196 | 8.0 | 9.7 | 0.00 | 0.00 | 0.00 | 50 | 1012.2 |
| 20260503234124 | 15 | 203 | 8.0 | 9.7 | 0.00 | 0.00 | 0.00 | 50 | 1013.9 |
| 20260503234003 | 15 | 198 | 8.0 | 9.7 | 0.00 | 0.00 | 0.00 | 50 | 1012.2 |
| 20260503233624 | 15 | 200 | 6.4 | 11.3 | 0.00 | 0.00 | 0.00 | 50 | 1013.9 |
| 20260503233503 | 15 | 215 | 6.4 | 9.7 | 0.00 | 0.00 | 0.00 | 51 | 1012.2 |
| 20260503233125 | 15 | 212 | 6.4 | 11.3 | 0.00 | 0.00 | 0.00 | 51 | 1013.9 |
| 20260503233004 | 15 | 231 | 6.4 | 9.7 | 0.00 | 0.00 | 0.00 | 51 | 1012.2 |
| 20260503232624 | 15 | 228 | 6.4 | 6.4 | 0.00 | 0.00 | 0.00 | 51 | 1014.0 |
| 20260503232503 | 15 | 233 | 6.4 | 8.0 | 0.00 | 0.00 | 0.00 | 51 | 1012.2 |
| 20260503232003 | 15 | 213 | 6.4 | 8.0 | 0.00 | 0.00 | 0.00 | 50 | 1012.2 |
| 20260503231625 | 15 | 214 | 6.4 | 6.4 | 0.00 | 0.00 | 0.00 | 50 | 1014.0 |
| 20260503231504 | 15 | 213 | 6.4 | 6.4 | 0.00 | 0.00 | 0.00 | 51 | 1012.3 |
| 20260503231125 | 15 | 216 | 6.4 | 6.4 | 0.00 | 0.00 | 0.00 | 50 | 1014.2 |
| 20260503230624 | 15 | 221 | 6.4 | 6.4 | 0.00 | 0.00 | 0.00 | 50 | 1013.9 |
| 20260503230503 | 15 | 222 | 6.4 | 6.4 | 0.00 | 0.00 | 0.00 | 51 | 1012.1 |
| 20260503230007 | 15 | 221 | 6.4 | 6.4 | 0.00 | 0.00 | 0.00 | 51 | 1012.3 |
| 20260503225625 | 15 | 223 | 4.8 | 6.4 | 0.00 | 0.00 | 0.00 | 50 | 1014.1 |
| 20260503225506 | 15 | 225 | 6.4 | 6.4 | 0.00 | 0.00 | 0.00 | 50 | 1012.3 |
| 20260503225125 | 15 | 221 | 4.8 | 6.4 | 0.00 | 0.00 | 0.00 | 49 | 1014.1 |
| 20260503225006 | 15 | 236 | 6.4 | 6.4 | 0.00 | 0.00 | 0.00 | 50 | 1012.2 |
| 20260503224625 | 15 | 211 | 4.8 | 6.4 | 0.00 | 0.00 | 0.00 | 49 | 1013.8 |
| 20260503224125 | 15 | 208 | 4.8 | 6.4 | 0.00 | 0.00 | 0.00 | 49 | 1014.3 |
| 20260503224006 | 15 | 228 | 6.4 | 6.4 | 0.00 | 0.00 | 0.00 | 50 | 1012.2 |
| 20260503223624 | 15 | 215 | 4.8 | 6.4 | 0.00 | 0.00 | 0.00 | 49 | 1014.1 |
| 20260503223506 | 15 | 223 | 6.4 | 6.4 | 0.00 | 0.00 | 0.00 | 50 | 1012.2 |
| 20260503223125 | 15 | 221 | 4.8 | 8.0 | 0.00 | 0.00 | 0.00 | 49 | 1013.8 |
| 20260503223007 | 15 | 222 | 6.4 | 9.7 | 0.00 | 0.00 | 0.00 | 50 | 1012.2 |
| 20260503222624 | 15 | 221 | 6.4 | 9.7 | 0.00 | 0.00 | 0.00 | 49 | 1014.0 |
| 20260503222124 | 15 | 223 | 6.4 | 9.7 | 0.00 | 0.00 | 0.00 | 50 | 1014.1 |
| 20260503222006 | 15 | 237 | 8.0 | 9.7 | 0.00 | 0.00 | 0.00 | 51 | 1012.4 |
| 20260503221506 | 15 | 240 | 8.0 | 9.7 | 0.00 | 0.00 | 0.00 | 51 | 1012.4 |
| 20260503221125 | 15 | 213 | 6.4 | 9.7 | 0.00 | 0.00 | 0.00 | 50 | 1014.3 |
| 20260503221006 | 15 | 225 | 8.0 | 9.7 | 0.00 | 0.00 | 0.00 | 51 | 1012.5 |
| 20260503220625 | 15 | 211 | 6.4 | 8.0 | 0.00 | 0.00 | 0.00 | 50 | 1014.2 |
| 20260503220506 | 15 | 231 | 8.0 | 9.7 | 0.00 | 0.00 | 0.00 | 51 | 1012.5 |
| 20260503220131 | 15 | 220 | 6.4 | 8.0 | 0.00 | 0.00 | 0.00 | 50 | 1014.4 |
| 20260503215625 | 15 | 223 | 6.4 | 8.0 | 0.00 | 0.00 | 0.00 | 50 | 1014.3 |
| 20260503215507 | 16 | 227 | 6.4 | 8.0 | 0.00 | 0.00 | 0.00 | 51 | 1012.5 |
| 20260503215124 | 15 | 219 | 6.4 | 8.0 | 0.00 | 0.00 | 0.00 | 50 | 1014.2 |
| 20260503215006 | 16 | 224 | 6.4 | 6.4 | 0.00 | 0.00 | 0.00 | 50 | 1012.6 |
| 20260503214625 | 16 | 223 | 6.4 | 8.0 | 0.00 | 0.00 | 0.00 | 49 | 1014.3 |
| 20260503214506 | 16 | 224 | 6.4 | 8.0 | 0.00 | 0.00 | 0.00 | 49 | 1012.6 |
| 20260503214125 | 16 | 233 | 6.4 | 8.0 | 0.00 | 0.00 | 0.00 | 49 | 1014.3 |
| 20260503214006 | 16 | 230 | 6.4 | 8.0 | 0.00 | 0.00 | 0.00 | 49 | 1012.6 |
| 20260503213624 | 16 | 230 | 4.8 | 6.4 | 0.00 | 0.00 | 0.00 | 48 | 1014.1 |
| 20260503213506 | 16 | 232 | 6.4 | 8.0 | 0.00 | 0.00 | 0.00 | 49 | 1012.4 |
| 20260503213125 | 16 | 224 | 4.8 | 6.4 | 0.00 | 0.00 | 0.00 | 48 | 1014.1 |
| 20260503213006 | 16 | 227 | 6.4 | 8.0 | 0.00 | 0.00 | 0.00 | 48 | 1012.6 |
| 20260503212625 | 16 | 224 | 6.4 | 6.4 | 0.00 | 0.00 | 0.00 | 48 | 1014.2 |
| 20260503212506 | 16 | 225 | 6.4 | 8.0 | 0.00 | 0.00 | 0.00 | 48 | 1012.4 |
| 20260503212124 | 16 | 221 | 6.4 | 6.4 | 0.00 | 0.00 | 0.00 | 48 | 1014.0 |
| 20260503212007 | 16 | 231 | 6.4 | 8.0 | 0.00 | 0.00 | 0.00 | 49 | 1012.3 |
| 20260503211624 | 16 | 217 | 6.4 | 6.4 | 0.00 | 0.00 | 0.00 | 48 | 1014.2 |
| 20260503211124 | 16 | 216 | 4.8 | 6.4 | 0.00 | 0.00 | 0.00 | 48 | 1014.4 |
| 20260503211007 | 15 | 225 | 3.2 | 6.4 | 0.00 | 0.00 | 0.00 | 50 | 1012.4 |
| 20260503210624 | 15 | 217 | 3.2 | 4.8 | 0.00 | 0.00 | 0.00 | 49 | 1014.2 |
| 20260503210130 | 15 | 212 | 3.2 | 3.2 | 0.00 | 0.00 | 0.00 | 48 | 1014.1 |
| 20260503210007 | 15 | 0 | 0.0 | 0.0 | 0.00 | 0.00 | 0.00 | 50 | 1012.5 |
| 20260503205625 | 15 | 204 | 1.6 | 3.2 | 0.00 | 0.00 | 0.00 | 47 | 1014.1 |
| 20260503205125 | 16 | 198 | 1.6 | 3.2 | 0.00 | 0.00 | 0.00 | 46 | 1014.3 |
| 20260503205006 | 15 | 225 | 1.6 | 3.2 | 0.00 | 0.00 | 0.00 | 48 | 1012.5 |
| 20260503204624 | 16 | 189 | 1.6 | 3.2 | 0.00 | 0.00 | 0.00 | 45 | 1014.1 |
| 20260503204507 | 16 | 221 | 1.6 | 3.2 | 0.00 | 0.00 | 0.00 | 47 | 1012.5 |
| 20260503204006 | 16 | 217 | 3.2 | 3.2 | 0.00 | 0.00 | 0.00 | 47 | 1012.3 |
| 20260503203506 | 16 | 222 | 3.2 | 3.2 | 0.00 | 0.00 | 0.00 | 46 | 1012.4 |
| 20260503203124 | 16 | 213 | 1.6 | 3.2 | 0.00 | 0.00 | 0.00 | 44 | 1014.2 |
| 20260503203006 | 16 | 219 | 3.2 | 3.2 | 0.00 | 0.00 | 0.00 | 46 | 1012.4 |
| 20260503202506 | 16 | 219 | 3.2 | 3.2 | 0.00 | 0.00 | 0.00 | 45 | 1012.4 |
| 20260503202124 | 17 | 221 | 1.6 | 3.2 | 0.00 | 0.00 | 0.00 | 43 | 1014.1 |
| 20260503202007 | 16 | 225 | 3.2 | 3.2 | 0.00 | 0.00 | 0.00 | 45 | 1012.4 |
| 20260503201506 | 16 | 225 | 3.2 | 3.2 | 0.00 | 0.00 | 0.00 | 45 | 1012.6 |
| 20260503201007 | 17 | 225 | 3.2 | 3.2 | 0.00 | 0.00 | 0.00 | 44 | 1012.4 |
| 20260503200506 | 17 | 225 | 3.2 | 3.2 | 0.00 | 0.00 | 0.00 | 43 | 1012.5 |
| 20260503200131 | 17 | 199 | 1.6 | 3.2 | 0.00 | 0.00 | 0.00 | 42 | 1014.3 |
| 20260503200007 | 17 | 225 | 3.2 | 3.2 | 0.00 | 0.00 | 0.00 | 43 | 1012.6 |
| 20260503195625 | 17 | 213 | 1.6 | 3.2 | 0.00 | 0.00 | 0.00 | 41 | 1014.1 |
| 20260503195506 | 17 | 225 | 3.2 | 3.2 | 0.00 | 0.00 | 0.00 | 42 | 1012.5 |
| 20260503195125 | 17 | 236 | 1.6 | 3.2 | 0.00 | 0.00 | 0.00 | 41 | 1014.1 |
| 20260503194625 | 18 | 223 | 3.2 | 4.8 | 0.00 | 0.00 | 0.00 | 41 | 1014.0 |
| 20260503194125 | 18 | 204 | 3.2 | 4.8 | 0.00 | 0.00 | 0.00 | 40 | 1014.2 |
| 20260503194006 | 18 | 220 | 3.2 | 4.8 | 0.00 | 0.00 | 0.00 | 42 | 1012.6 |
| 20260503193625 | 18 | 208 | 3.2 | 3.2 | 0.00 | 0.00 | 0.00 | 40 | 1014.1 |
| 20260503193506 | 18 | 225 | 3.2 | 4.8 | 0.00 | 0.00 | 0.00 | 42 | 1012.7 |
| 20260503193125 | 18 | 214 | 3.2 | 3.2 | 0.00 | 0.00 | 0.00 | 40 | 1014.2 |
| 20260503193006 | 18 | 221 | 3.2 | 4.8 | 0.00 | 0.00 | 0.00 | 41 | 1012.5 |
| 20260503192625 | 18 | 215 | 3.2 | 3.2 | 0.00 | 0.00 | 0.00 | 39 | 1014.4 |
| 20260503192507 | 18 | 220 | 3.2 | 4.8 | 0.00 | 0.00 | 0.00 | 41 | 1012.6 |
| 20260503192125 | 18 | 216 | 3.2 | 3.2 | 0.00 | 0.00 | 0.00 | 39 | 1014.1 |
| 20260503192006 | 18 | 222 | 3.2 | 4.8 | 0.00 | 0.00 | 0.00 | 41 | 1012.6 |
| 20260503191625 | 18 | 216 | 3.2 | 3.2 | 0.00 | 0.00 | 0.00 | 39 | 1014.3 |
| 20260503191125 | 18 | 221 | 3.2 | 3.2 | 0.00 | 0.00 | 0.00 | 37 | 1014.2 |
| 20260503190506 | 19 | 225 | 3.2 | 4.8 | 0.00 | 0.00 | 0.00 | 38 | 1012.4 |
| 20260503190130 | 19 | 221 | 3.2 | 3.2 | 0.00 | 0.00 | 0.00 | 37 | 1014.1 |
| 20260503190007 | 19 | 225 | 3.2 | 4.8 | 0.00 | 0.00 | 0.00 | 38 | 1012.5 |
| 20260503185624 | 19 | 226 | 3.2 | 3.2 | 0.00 | 0.00 | 0.00 | 36 | 1014.2 |
| 20260503185506 | 19 | 225 | 3.2 | 4.8 | 0.00 | 0.00 | 0.00 | 38 | 1012.5 |
| 20260503185124 | 19 | 226 | 3.2 | 3.2 | 0.00 | 0.00 | 0.00 | 36 | 1014.2 |
| 20260503185006 | 19 | 225 | 3.2 | 4.8 | 0.00 | 0.00 | 0.00 | 38 | 1012.4 |
| 20260503184506 | 20 | 225 | 3.2 | 4.8 | 0.00 | 0.00 | 0.00 | 36 | 1012.3 |
| 20260503184124 | 20 | 225 | 3.2 | 3.2 | 0.00 | 0.00 | 0.00 | 34 | 1014.0 |
| 20260503184006 | 20 | 225 | 3.2 | 4.8 | 0.00 | 0.00 | 0.00 | 35 | 1012.3 |
| 20260503183625 | 20 | 224 | 3.2 | 3.2 | 0.00 | 0.00 | 0.00 | 34 | 1014.1 |
| 20260503183506 | 20 | 225 | 3.2 | 4.8 | 0.00 | 0.00 | 0.00 | 35 | 1012.3 |
| 20260503183125 | 21 | 215 | 3.2 | 3.2 | 0.00 | 0.00 | 0.00 | 34 | 1013.8 |
| 20260503183006 | 21 | 222 | 3.2 | 4.8 | 0.00 | 0.00 | 0.00 | 33 | 1012.3 |
| 20260503182625 | 21 | 209 | 3.2 | 4.8 | 0.00 | 0.00 | 0.00 | 32 | 1013.8 |
| 20260503182506 | 21 | 222 | 4.8 | 6.4 | 0.00 | 0.00 | 0.00 | 33 | 1012.2 |
| 20260503182006 | 21 | 207 | 6.4 | 9.7 | 0.00 | 0.00 | 0.00 | 33 | 1012.1 |
| 20260503181624 | 21 | 205 | 6.4 | 9.7 | 0.00 | 0.00 | 0.00 | 32 | 1013.7 |
| 20260503181507 | 21 | 198 | 6.4 | 9.7 | 0.00 | 0.00 | 0.00 | 33 | 1012.0 |
| 20260503181125 | 21 | 214 | 6.4 | 9.7 | 0.00 | 0.00 | 0.00 | 32 | 1013.7 |
| 20260503181006 | 21 | 214 | 4.8 | 6.4 | 0.00 | 0.00 | 0.00 | 32 | 1012.0 |
| 20260503180625 | 22 | 225 | 6.4 | 9.7 | 0.00 | 0.00 | 0.00 | 30 | 1013.7 |
| 20260503180506 | 22 | 211 | 4.8 | 9.7 | 0.00 | 0.00 | 0.00 | 31 | 1012.1 |
| 20260503180131 | 22 | 215 | 6.4 | 9.7 | 0.00 | 0.00 | 0.00 | 29 | 1013.6 |
| 20260503180006 | 22 | 206 | 6.4 | 9.7 | 0.00 | 0.00 | 0.00 | 31 | 1012.1 |
| 20260503175625 | 22 | 210 | 6.4 | 9.7 | 0.00 | 0.00 | 0.00 | 29 | 1013.6 |
| 20260503175506 | 22 | 213 | 6.4 | 9.7 | 0.00 | 0.00 | 0.00 | 31 | 1012.0 |
| 20260503175125 | 22 | 203 | 6.4 | 8.0 | 0.00 | 0.00 | 0.00 | 28 | 1013.6 |
| 20260503174506 | 23 | 221 | 6.4 | 8.0 | 0.00 | 0.00 | 0.00 | 29 | 1012.0 |